Weather Roundup
Issued by NWS

Home | Current Version | Previous Version | Text Only | Print | Product List | Glossary On
Versions: 1 2 3 4 5 6 7 8 9 10 11 12 13 14 15 16 17 18 19 20 21 22 23 24 25 26 27 28 29 30 31 32 33 34 35 36 37 38 39 40 41 42 43 44 45 46 47 48 49 50
630
NZUS93 KARX 030559
HRRWXR

CURRENT HOURLY OBSERVATIONS ACROSS
MUCH OF THE UPPER MISSISSIPPI VALLEY
NATIONAL WEATHER SERVICE LA CROSSE WI
100 AM CDT TUE MAY 03 2016


...SOUTHEAST MINNESOTA...


CITY           SKY/WX    TMP DP  RH WIND       PRES   REMARKS
ROCHESTER      CLEAR     46  40  79 SW10      30.01F
ROCHESTER/MAYO FAIR      53  38  58 SW6       30.01S
WINONA         PTCLDY    48  43  81 CALM      30.00S
AUSTIN         CLEAR     45  37  76 SW3       30.01F
ALBERT LEA     NOT AVBL
DODGE CENTER   PTCLDY    45  37  76 SW6       30.01S
PRESTON        CLEAR     49  38  64 SW9       30.01F
OWATONNA       CLEAR     46  37  71 CALM      30.01S
FARIBAULT      NOT AVBL
$$

...ELSEWHERE IN MINNESOTA...


CITY           SKY/WX    TMP DP  RH WIND       PRES   REMARKS
MINNEAPOLIS    CLEAR     54  35  48 SW6       29.99S
INTNL FALLS    CLOUDY    37  31  78 CALM      29.86F
DULUTH         CLEAR     46  31  55 W7        29.93F
RED WING       CLEAR     43  37  81 CALM      29.98F
REDWOOD FALLS  CLEAR     49  38  65 SW8       30.00S
MANKATO        CLEAR     52  36  54 SW5       30.00F
WORTHINGTON    CLEAR     46  40  79 SW6       30.03
FAIRMONT       CLEAR     45  36  70 SW7       30.01F
$$

...SOUTHWEST WISCONSIN...


CITY           SKY/WX    TMP DP  RH WIND       PRES   REMARKS
LA CROSSE      PTCLDY    49  41  74 E5        29.99F
PRAIRIE DU CHI CLEAR     43  39  86 CALM      30.01S
BOSCOBEL       CLEAR     44  40  85 SW5       30.01S
LONE ROCK      NOT AVBL
PLATTEVILLE    CLEAR     48  38  70 W3        30.01S
FORT MC COY    CLEAR     39  35  88 CALM      30.00S
MAUSTON-NEW LI CLEAR     42  40  90 CALM      29.98S
VIROQUA        FAIR      51  35  55 W6        30.00S
WIS DELLS      PTCLDY    45  35  67 CALM      29.99S
$$

...ELSEWHERE IN WISCONSIN...


CITY           SKY/WX    TMP DP  RH WIND       PRES   REMARKS
MILWAUKEE      CLEAR     42  33  70 CALM      29.99F
MADISON        CLEAR     47  38  71 S6        29.99F
GREEN BAY      CLEAR     44  37  76 CALM      29.96F
EAU CLAIRE     NOT AVBL
BLACK RVR FLS  FAIR      38  37  97 CALM      29.98F
MEDFORD        CLEAR     46  36  67 SW3       29.96F
WAUSAU         CLEAR     48  38  68 CALM      29.94F
WIS RAPIDS     CLEAR     41  33  73 CALM      29.98F
MARSHFIELD     CLEAR     49  34  56 W6        29.96F
RICE LAKE      CLEAR     44  38  77 CALM      29.98F
$$

...NORTHEAST IOWA...


CITY           SKY/WX    TMP DP  RH WIND       PRES   REMARKS
WATERLOO       CLEAR     44  39  82 CALM      30.03S
DUBUQUE        CLEAR     45  39  79 S3        30.01F
DECORAH        PTCLDY    48  39  71 CALM      30.01S
MASON CITY     CLEAR     47  39  74 SW6       30.04F
CHARLES CITY   CLEAR     48  41  76 SW6       30.03F
OELWEIN        CLEAR     46  41  81 W8        30.03F
$$

...ELSEWHERE IN IOWA...


CITY           SKY/WX    TMP DP  RH WIND       PRES   REMARKS
DES MOINES     PTCLDY    48  40  73 CALM      30.05S
IOWA CITY      PTCLDY    46  42  86 CALM      30.04F
FORT DODGE     CLEAR     45  37  76 CALM      30.05S
MARSHALLTOWN   CLEAR     44  41  89 SW5       30.04S
CEDAR RAPIDS   CLEAR     46  42  86 W5        30.02F
$$

...NORTHERN ILLINOIS...


CITY           SKY/WX    TMP DP  RH WIND       PRES   REMARKS
CHICAGO-OHARE  CLEAR     44  35  70 CALM      30.00R
CHICAGO-MIDWAY CLEAR     45  35  68 CALM      30.00S
MOLINE         CLEAR     45  42  89 CALM      30.02S
ROCKFORD       CLEAR     42  37  82 CALM      30.03S
PEORIA         CLEAR     48  43  82 CALM      30.02S
$$

NOTE: "FAIR" INDICATES FEW OR NO CLOUDS BELOW 12,000 FEET WITH NO
SIGNIFICANT WEATHER AND/OR OBSTRUCTIONS TO VISIBILITY. WIND
SPEEDS ARE IN MILES-PER-HOUR.




USA.gov is the U.S. government's official web portal to all federal, state and local government web resources and services.